Santuari del Far - Susqueda





Hora UTC 01:35
Temperatura 8.6 ºC
Humitat 82.0 %
Pressió 1005.9 hPa
Pluja 0.0 mm
Velocitat vent 0.0 km/h
Direcció vent N

Dades diàries 2020-10-26



Hora UTC (hivern +1h; estiu +2h)
Temperatura (ºC) Humitat (%) Pressió (hPa) Velocitat vent (km/h) Precipitació (mm)
Hora UTC Aire Humitat Pressió Vel. Dir. Vel. Max Dir. Intent. màx 5 min.
00:00 9.8 75.0 1006.5 6.4 N 6.4 0.0
00:05 9.9 74.0 1006.2 3.2 N 8.0 0.0
00:10 10.0 74.0 1006.2 8.0 N 8.0 0.0
00:15 10.0 74.0 1005.9 1.6 N 9.7 0.0
00:20 10.0 74.0 1005.9 0.0 N 9.7 0.0
00:25 9.9 74.0 1006.2 0.0 N 8.0 0.0
00:30 9.8 75.0 1006.2 3.2 N 8.0 0.0
00:35 9.7 75.0 1006.2 3.2 N 8.0 0.0
00:40 9.6 76.0 1006.5 1.6 N 6.4 0.0
00:45 9.4 77.0 1006.4 1.6 N 6.4 0.0
00:50 9.3 77.0 1006.5 3.2 N 9.7 0.0
00:55 9.3 78.0 1006.7 3.2 N 9.7 0.0
01:00 9.3 78.0 1006.3 3.2 N 9.7 0.0
01:05 9.3 79.0 1006.2 3.2 N 9.7 0.0
01:10 9.2 79.0 1006.2 3.2 N 17.7 0.0
01:15 9.1 79.0 1006.3 3.2 N 17.7 0.0
01:20 9.1 80.0 1006.1 6.4 N 16.1 0.0
01:25 8.9 80.0 1006.1 8.0 N 12.9 0.0
01:30 8.7 81.0 1006.2 8.0 N 12.9 0.0
01:35 8.6 82.0 1005.9 0.0 N 12.9 0.0
Màxima 10.0 82.0 1006.7 8.0 N 17.7 0.0
Mínima 8.6 74.0 1005.9
Total 0.0